Ballina Observation History
Time Wind Speed Temp Pressure Rel. Hum Rain
30/11:30am NNW 4-7 kts 25.2°c 1016.9 hPa 66% 0.0mm
30/11:00am N 6-9 kts 26.0°c 1017.1 hPa 68% 0.0mm
30/10:30am NW 3-8 kts 24.4°c 1017.0 hPa 75% 0.0mm
30/10:00am CALM 0-1 kts 24.2°c 1017.0 hPa 77% 0.0mm
30/09:30am SW 1-4 kts 22.5°c 1016.9 hPa 82% 0.0mm
30/09:00am WSW 4-6 kts 21.4°c 1017.1 hPa 88% 2.2mm
30/08:30am W 4-5 kts 20.7°c 1017.0 hPa 92% 2.2mm
30/08:00am CALM 0 kts 18.9°c 1016.8 hPa 98% 2.2mm
30/07:30am NNW 2-4 kts 17.2°c 1016.6 hPa 98% 2.2mm
30/07:00am CALM 0 kts 16.3°c 1016.2 hPa 98% 2.2mm
30/06:37am CALM 0 kts 16.1°c 1016.2 hPa 98% 2.2mm
30/06:30am CALM 0 kts 16.1°c 1016.2 hPa 98% 2.2mm
30/06:00am CALM 0 kts 16.6°c 1016.1 hPa 98% 2.2mm
30/05:30am CALM 0 kts 16.6°c 1015.9 hPa 97% 2.2mm
30/05:15am CALM 0 kts 16.2°c 1015.9 hPa 96% 2.2mm
30/05:01am CALM 0 kts 17.0°c 1016.0 hPa 97% 2.2mm
30/05:00am CALM 0 kts 16.9°c 1016.0 hPa 97% 2.2mm
30/04:38am CALM 0 kts 16.4°c 1016.1 hPa 96% 2.2mm
30/04:30am CALM 0 kts 16.8°c 1016.2 hPa 96% 2.2mm
30/04:06am CALM 0 kts 16.8°c 1016.3 hPa 96% 2.2mm
30/04:00am CALM 0 kts 17.1°c 1016.3 hPa 96% 2.2mm
30/03:47am CALM 0 kts 17.1°c 1016.4 hPa 96% 2.2mm
30/03:30am CALM 0 kts 17.3°c 1016.5 hPa 96% 2.2mm
30/03:00am CALM 0 kts 17.5°c 1017.3 hPa 96% 2.2mm
30/02:30am SW 2-4 kts 18.1°c 1017.5 hPa 98% 2.2mm
30/02:00am CALM 0 kts 17.7°c 1017.5 hPa 97% 2.2mm
30/01:30am SW 2-4 kts 18.3°c 1017.7 hPa 98% 2.2mm
30/01:00am SW 1-3 kts 17.9°c 1017.8 hPa 96% 2.2mm
30/12:30am WSW 3 kts 18.5°c 1018.1 hPa 99% 2.2mm
30/12:00am WSW 4-6 kts 18.8°c 1018.2 hPa 97% 2.2mm
Time Wind Speed Temp Pressure Rel. Hum Rain
29/11:30pm NNW 2-3 kts 18.8°c 1018.3 hPa 98% 2.2mm
29/11:00pm SSE 5-6 kts 19.3°c 1018.6 hPa 96% 2.2mm
29/10:30pm CALM 0-3 kts 19.1°c 1018.9 hPa 95% 2.2mm
29/10:00pm W 5-6 kts 19.2°c 1019.1 hPa 96% 2.2mm
29/09:30pm ESE 4-5 kts 19.5°c 1018.8 hPa 93% 2.2mm
29/09:00pm CALM 0 kts 20.3°c 1018.6 hPa 94% 2.2mm
29/08:30pm ESE 2-5 kts 20.6°c 1018.6 hPa 93% 2.2mm
29/08:00pm CALM 0 kts 20.4°c 1018.5 hPa 93% 2.2mm
29/07:30pm CALM 0 kts 20.9°c 1018.2 hPa 88% 2.2mm
29/07:00pm CALM 0 kts 22.0°c 1017.9 hPa 85% 2.2mm
29/06:30pm ESE 4-6 kts 22.6°c 1017.7 hPa 78% 2.2mm
29/06:00pm SSE 6-8 kts 23.3°c 1017.5 hPa 82% 2.2mm
29/05:30pm SSE 8-11 kts 23.3°c 1017.3 hPa 82% 2.2mm
29/05:00pm SE 8-12 kts 24.6°c 1017.1 hPa 78% 2.2mm
29/04:30pm SSE 10-13 kts 24.4°c 1017.1 hPa 78% 2.2mm
29/04:00pm SSE 9-13 kts 24.8°c 1017.3 hPa 74% 2.2mm
29/03:30pm SE 8-11 kts 24.8°c 1017.2 hPa 69% 2.2mm
29/03:00pm SSE 7-10 kts 24.7°c 1017.5 hPa 75% 2.2mm
29/02:30pm S 8-12 kts 24.2°c 1017.8 hPa 80% 2.2mm
29/02:00pm SSW 8-11 kts 22.8°c 1018.2 hPa 84% 2.2mm
29/01:30pm SSE 9-11 kts 23.1°c 1018.3 hPa 82% 2.2mm
29/01:00pm SSE 7-10 kts 24.1°c 1018.7 hPa 77% 2.0mm
29/12:30pm SSW 3-7 kts 24.7°c 1019.0 hPa 74% 2.0mm
29/12:00pm WSW 3-7 kts 24.2°c 1019.4 hPa 85% 2.0mm
29/11:30am SW 5 kts 22.6°c 1019.5 hPa 88% 1.8mm
29/11:03am S 3-6 kts 21.2°c 1019.9 hPa 88% 1.8mm
29/11:00am SSE 3-6 kts 21.2°c 1019.9 hPa 88% 1.8mm
29/10:30am ESE 3-4 kts 20.9°c 1020.4 hPa 91% 1.2mm
29/10:23am SE 3-4 kts 21.0°c 1020.4 hPa 89% 0.4mm
29/10:00am WSW 3-5 kts 21.3°c 1020.4 hPa 89% 0.0mm
29/09:30am W 6-8 kts 21.4°c 1020.1 hPa 97% 0.0mm
29/09:14am WNW 5-6 kts 19.8°c 1020.1 hPa 97% 0.0mm
29/09:05am E 5-6 kts 19.6°c 1020.0 hPa 97% 0.0mm
29/09:00am E 4-5 kts 19.4°c 1020.0 hPa 97% 2.0mm
29/08:56am E 2-5 kts 19.3°c 1020.0 hPa 97% 2.0mm
29/08:30am NNE 4-7 kts 19.0°c 1019.9 hPa 97% 2.0mm
29/08:27am N 3-5 kts 19.0°c 1019.9 hPa 97% 2.0mm
29/08:00am WSW 5-6 kts 18.6°c 1019.5 hPa 97% 2.0mm
29/07:30am WSW 6-7 kts 18.7°c 1019.2 hPa 97% 1.8mm
29/07:00am WSW 6-7 kts 18.7°c 1018.9 hPa 98% 1.8mm
29/06:30am SW 5-7 kts 18.8°c 1018.7 hPa 97% 1.8mm
29/06:00am WSW 5-6 kts 18.0°c 1018.3 hPa 97% 1.8mm
29/05:30am SSW 6-8 kts 19.1°c 1018.1 hPa 97% 1.8mm
29/05:20am SSW 6-8 kts 19.0°c 1018.0 hPa 98% 1.8mm
29/05:00am W 1-7 kts 17.2°c 1018.1 hPa 98% 1.8mm
29/04:36am CALM 0 kts 18.1°c 1018.2 hPa 99% 1.8mm
29/04:30am CALM 0 kts 18.4°c 1018.2 hPa 99% 1.8mm
29/04:00am W 5-6 kts 18.4°c 1018.0 hPa 99% 1.8mm
29/03:30am WSW 5-6 kts 19.1°c 1018.1 hPa 99% 1.8mm
29/03:00am SSW 5-7 kts 19.2°c 1018.5 hPa 99% 1.8mm
29/02:30am N 5-9 kts 19.1°c 1018.7 hPa 99% 1.6mm
29/02:00am SW 4 kts 18.8°c 1018.8 hPa 98% 1.6mm
29/01:30am CALM 0-2 kts 19.4°c 1019.2 hPa 98% 1.6mm
29/01:15am SW 3-6 kts 19.4°c 1019.2 hPa 99% 1.4mm
29/01:00am WSW 5-7 kts 19.0°c 1019.2 hPa 99% 1.4mm
29/12:56am WSW 4-6 kts 18.8°c 1019.3 hPa 98% 1.0mm
29/12:30am WSW 5-6 kts 19.2°c 1019.3 hPa 98% 0.2mm
29/12:00am NNW 2-5 kts 19.7°c 1019.3 hPa 97% 0.2mm
Time Wind Speed Temp Pressure Rel. Hum Rain
28/11:30pm NNW 3-7 kts 19.2°c 1019.6 hPa 100% 0.2mm
28/11:00pm W 3-4 kts 18.4°c 1020.0 hPa 100% 0.0mm
28/10:30pm CALM 0 kts 18.7°c 1020.2 hPa n/a 0.0mm
28/10:00pm CALM 0 kts 19.4°c 1020.1 hPa n/a 0.0mm
28/09:30pm NW 3 kts 18.9°c 1019.7 hPa 100% 0.0mm
28/09:00pm NNW 2-4 kts 19.6°c 1019.6 hPa 100% 0.0mm
28/08:30pm ENE 3-4 kts 20.6°c 1019.7 hPa 93% 0.0mm
28/08:00pm NE 4-5 kts 20.7°c 1019.5 hPa 88% 0.0mm
28/07:30pm ENE 6-8 kts 21.4°c 1019.2 hPa 81% 0.0mm
28/07:00pm ENE 9-13 kts 21.8°c 1019.1 hPa 82% 0.0mm
28/06:30pm ENE 13-16 kts 22.5°c 1018.9 hPa 78% 0.0mm
28/06:00pm E 8-11 kts 23.8°c 1018.6 hPa 78% 0.0mm
28/05:30pm ESE 9-12 kts 24.0°c 1018.4 hPa 76% 0.0mm
28/05:00pm ESE 9-13 kts 23.8°c 1018.4 hPa 75% 0.0mm
28/04:30pm E 10-15 kts 24.3°c 1018.3 hPa 73% 0.0mm
28/04:00pm E 11-16 kts 23.6°c 1018.4 hPa 79% 0.0mm
28/03:30pm SSE 12-21 kts 24.2°c 1018.6 hPa 78% 0.0mm
28/03:00pm SSE 13-17 kts 25.2°c 1018.7 hPa 74% 0.0mm
28/02:30pm S 13-19 kts 25.4°c 1018.8 hPa 76% 0.0mm
28/02:00pm S 14-19 kts 23.9°c 1019.1 hPa 79% 0.0mm
28/01:30pm S 16-20 kts 24.5°c 1019.4 hPa 77% 0.0mm
28/01:00pm S 15-20 kts 23.9°c 1019.9 hPa 77% 0.0mm
28/12:30pm SSW 12-17 kts 23.4°c 1020.3 hPa 80% 0.0mm
28/12:00pm SSW 11-17 kts 23.0°c 1020.7 hPa 78% 0.0mm
28/11:30am SSW 12-18 kts 23.3°c 1021.0 hPa 77% 0.0mm
28/11:00am SW 9-12 kts 22.6°c 1021.1 hPa 75% 0.0mm
28/10:30am SW 9-13 kts 21.7°c 1021.2 hPa 73% 0.0mm
28/10:00am WSW 10-15 kts 21.5°c 1021.3 hPa 71% 0.0mm
28/09:30am SW 10-15 kts 21.3°c 1021.0 hPa 77% 0.0mm
28/09:00am SW 11-16 kts 20.4°c 1020.9 hPa 78% 17.2mm
28/08:30am WSW 9-12 kts 18.8°c 1020.7 hPa 82% 17.2mm
28/08:00am WSW 8-11 kts 17.9°c 1020.4 hPa 84% 17.2mm
28/07:30am WSW 10-12 kts 17.8°c 1020.2 hPa 82% 17.2mm
28/07:00am WSW 11-14 kts 17.9°c 1020.2 hPa 83% 17.2mm
28/06:30am WSW 10-14 kts 17.9°c 1020.1 hPa 83% 17.2mm
28/06:00am WSW 7-11 kts 17.9°c 1019.9 hPa 87% 17.2mm
28/05:30am W 7-8 kts 17.5°c 1019.8 hPa 92% 17.2mm
28/05:00am SW 7-9 kts 17.4°c 1019.7 hPa 92% 17.2mm
28/04:30am WSW 8-10 kts 17.6°c 1019.8 hPa 91% 17.0mm
28/04:00am WSW 7-10 kts 17.4°c 1019.8 hPa 93% 17.0mm
28/03:30am W 9-11 kts 17.6°c 1020.1 hPa 99% 17.0mm
28/03:00am WSW 8-11 kts 17.7°c 1020.5 hPa n/a 16.8mm
28/02:30am W 6-9 kts 18.1°c 1020.8 hPa 99% 16.8mm
28/02:21am W 6-9 kts 18.2°c 1020.9 hPa 99% 16.8mm
28/02:11am WSW 3-8 kts 18.3°c 1020.9 hPa 98% 16.6mm
28/02:00am WSW 8-12 kts 18.2°c 1020.9 hPa 99% 16.2mm
28/01:54am SW 7-12 kts 18.3°c 1021.0 hPa 99% 16.2mm
28/01:30am WSW 6-9 kts 18.2°c 1021.0 hPa 99% 13.8mm
28/01:15am WSW 9-13 kts 18.3°c 1020.8 hPa 97% 11.2mm
28/01:00am WSW 13-18 kts 18.3°c 1021.0 hPa 97% 10.4mm
28/12:58am WSW 12-18 kts 18.3°c 1021.1 hPa 98% 10.4mm
28/12:48am SW 12-17 kts 18.4°c 1021.3 hPa 99% 10.4mm
28/12:45am SW 12-17 kts 18.4°c 1021.3 hPa 97% 10.4mm
28/12:30am WSW 9-13 kts 18.8°c 1021.4 hPa 95% 9.8mm
28/12:26am WSW 9-13 kts 18.8°c 1021.5 hPa 95% 9.8mm
28/12:00am WSW 8-11 kts 18.8°c 1021.4 hPa 97% 9.4mm